| time (UTC) | temp C | wind direction | speed KPH | gust KPH | rain 1hr cm | rain 24hr cm | rain mn cm | humidity % | barometer mb |
| 20260509161529 | 10 | 239 | 0.0 | 0.0 | 0.00 | 0.00 | 0.00 | 68 | 996.4 |
| 20260509160122 | 9 | 240 | 0.0 | 0.0 | 0.00 | 0.00 | 0.00 | 69 | 996.1 |
| 20260509154522 | 9 | 241 | 0.0 | 0.0 | 0.00 | 0.00 | 0.00 | 70 | 996.1 |
| 20260509153039 | 9 | 243 | 0.0 | 0.0 | 0.00 | 0.00 | 0.00 | 68 | 996.1 |
| 20260509151520 | 10 | 236 | 0.0 | 0.0 | 0.00 | 0.00 | 0.00 | 68 | 996.1 |
| 20260509150120 | 9 | 243 | 0.0 | 0.0 | 0.00 | 0.00 | 0.00 | 68 | 996.1 |
| 20260509144517 | 10 | 234 | 0.0 | 0.0 | 0.00 | 0.00 | 0.00 | 70 | 995.9 |
| 20260509143015 | 8 | 233 | 0.0 | 0.0 | 0.00 | 0.00 | 0.00 | 74 | 995.9 |
| 20260509141513 | 7 | 228 | 0.0 | 0.0 | 0.00 | 0.00 | 0.00 | 84 | 995.9 |
| 20260509140108 | 5 | 228 | 0.0 | 0.0 | 0.00 | 0.00 | 0.00 | 86 | 996.2 |
| 20260509134504 | 5 | 226 | 0.0 | 0.0 | 0.00 | 0.00 | 0.00 | 86 | 995.9 |
| 20260509133002 | 5 | 232 | 0.0 | 0.0 | 0.00 | 0.00 | 0.00 | 84 | 996.2 |
| 20260509131559 | 5 | 230 | 0.0 | 0.0 | 0.00 | 0.00 | 0.00 | 83 | 995.8 |
| 20260509130057 | 6 | 240 | 0.0 | 0.0 | 0.00 | 0.00 | 0.00 | 84 | 995.9 |
| 20260509124557 | 5 | 297 | 0.0 | 0.0 | 0.00 | 0.00 | 0.00 | 85 | 996.3 |
| 20260509123118 | 5 | 297 | 0.0 | 0.0 | 0.00 | 0.00 | 0.00 | 85 | 996.9 |
| 20260509121600 | 5 | 297 | 0.0 | 0.0 | 0.00 | 0.00 | 0.00 | 85 | 996.6 |
| 20260509120055 | 5 | 297 | 0.0 | 0.0 | 0.00 | 0.00 | 0.00 | 85 | 996.2 |
| 20260509114554 | 4 | 297 | 0.0 | 0.0 | 0.00 | 0.00 | 0.00 | 85 | 996.0 |
| 20260509113055 | 4 | 297 | 0.0 | 0.0 | 0.00 | 0.00 | 0.00 | 84 | 996.1 |
| 20260509111553 | 4 | 297 | 0.0 | 0.0 | 0.00 | 0.00 | 0.00 | 84 | 996.2 |
| 20260509110053 | 4 | 297 | 0.0 | 0.0 | 0.00 | 0.00 | 0.00 | 84 | 996.3 |
| 20260509104552 | 4 | 297 | 0.0 | 0.0 | 0.00 | 0.00 | 0.00 | 84 | 996.4 |
| 20260509103100 | 4 | 298 | 0.0 | 0.0 | 0.00 | 0.00 | 0.00 | 83 | 996.4 |
| 20260509101551 | 5 | 301 | 0.0 | 0.0 | 0.00 | 0.00 | 0.00 | 82 | 996.5 |
| 20260509100053 | 5 | 301 | 0.0 | 0.0 | 0.00 | 0.00 | 0.00 | 82 | 997.1 |
| 20260509094549 | 5 | 301 | 0.0 | 0.0 | 0.00 | 0.00 | 0.00 | 82 | 997.2 |
| 20260509093048 | 5 | 303 | 0.0 | 0.0 | 0.00 | 0.00 | 0.00 | 82 | 997.3 |
| 20260509091547 | 4 | 314 | 0.0 | 0.0 | 0.00 | 0.00 | 0.00 | 84 | 997.5 |
| 20260509090053 | 4 | 287 | 0.0 | 0.0 | 0.00 | 0.00 | 0.00 | 84 | 997.7 |
| 20260509084543 | 4 | 301 | 0.0 | 0.0 | 0.00 | 0.00 | 0.00 | 83 | 998.1 |
| 20260509083043 | 4 | 278 | 0.0 | 0.0 | 0.00 | 0.00 | 0.00 | 82 | 998.2 |
| 20260509081541 | 3 | 266 | 0.0 | 0.0 | 0.00 | 0.00 | 0.00 | 83 | 998.4 |
| 20260509080042 | 3 | 258 | 0.0 | 0.0 | 0.00 | 0.00 | 0.00 | 83 | 998.6 |
| 20260509074544 | 4 | 259 | 0.0 | 0.0 | 0.00 | 0.00 | 0.00 | 83 | 999.0 |
| 20260509073037 | 4 | 259 | 0.0 | 0.0 | 0.00 | 0.00 | 0.00 | 82 | 999.2 |
| 20260509071534 | 4 | 257 | 0.0 | 0.0 | 0.00 | 0.00 | 0.00 | 80 | 999.5 |
| 20260509070038 | 5 | 289 | 0.0 | 0.0 | 0.00 | 0.00 | 0.00 | 79 | 999.8 |
| 20260509064535 | 5 | 299 | 0.0 | 0.0 | 0.00 | 0.00 | 0.00 | 77 | 1000.0 |
| 20260509063031 | 5 | 299 | 0.0 | 0.0 | 0.00 | 0.00 | 0.00 | 76 | 1000.5 |
| 20260509061528 | 6 | 300 | 0.0 | 0.0 | 0.00 | 0.00 | 0.00 | 75 | 1000.8 |
| 20260509060033 | 6 | 315 | 0.0 | 0.0 | 0.00 | 0.00 | 0.00 | 73 | 1001.0 |
| 20260509054525 | 6 | 321 | 0.0 | 0.0 | 0.00 | 0.00 | 0.00 | 76 | 1001.2 |
| 20260509053024 | 5 | 326 | 0.0 | 0.0 | 0.00 | 0.00 | 0.00 | 72 | 1001.7 |
| 20260509051523 | 5 | 345 | 0.0 | 0.0 | 0.00 | 0.00 | 0.00 | 72 | 1001.7 |
| 20260509050040 | 4 | 281 | 0.0 | 0.0 | 0.00 | 0.00 | 0.00 | 80 | 1001.8 |
| 20260509044522 | 4 | 280 | 0.0 | 0.0 | 0.00 | 0.00 | 0.00 | 84 | 1001.9 |
| 20260509043019 | 3 | 274 | 0.0 | 0.0 | 0.00 | 0.00 | 0.00 | 81 | 1002.0 |
| 20260509041518 | 2 | 272 | 0.0 | 0.0 | 0.00 | 0.00 | 0.00 | 73 | 1002.3 |
| 20260509040016 | 2 | 272 | 0.0 | 0.0 | 0.00 | 0.00 | 0.00 | 69 | 1002.6 |
| 20260509034515 | 2 | 272 | 0.0 | 0.0 | 0.00 | 0.00 | 0.00 | 67 | 1002.7 |
| 20260509033013 | 2 | 271 | 0.0 | 0.0 | 0.00 | 0.00 | 0.00 | 67 | 1003.0 |
| 20260509031523 | 2 | 271 | 0.0 | 0.0 | 0.00 | 0.00 | 0.00 | 67 | 1003.4 |
| 20260509030011 | 2 | 272 | 0.0 | 0.0 | 0.00 | 0.00 | 0.00 | 67 | 1003.6 |
| 20260509024513 | 2 | 271 | 0.0 | 0.0 | 0.00 | 0.00 | 0.00 | 68 | 1003.6 |
| 20260509023017 | 2 | 272 | 0.0 | 0.0 | 0.00 | 0.00 | 0.00 | 68 | 1003.7 |
| 20260509021509 | 2 | 284 | 0.0 | 0.0 | 0.00 | 0.00 | 0.00 | 71 | 1003.7 |
| 20260509020006 | 3 | 284 | 0.0 | 0.0 | 0.00 | 0.00 | 0.00 | 70 | 1003.8 |
| 20260509014504 | 3 | 284 | 0.0 | 0.0 | 0.00 | 0.00 | 0.00 | 68 | 1003.8 |
| 20260509013111 | 4 | 284 | 0.0 | 0.0 | 0.00 | 0.00 | 0.00 | 66 | 1003.8 |
| 20260509011557 | 5 | 284 | 0.0 | 0.0 | 0.00 | 0.00 | 0.00 | 64 | 1003.7 |
| 20260509010054 | 6 | 284 | 0.0 | 0.0 | 0.00 | 0.00 | 0.00 | 62 | 1003.6 |
| 20260509004555 | 6 | 285 | 0.0 | 0.0 | 0.00 | 0.00 | 0.00 | 58 | 1003.6 |
| 20260509003055 | 6 | 285 | 0.0 | 0.0 | 0.00 | 0.00 | 0.00 | 56 | 1003.6 |
| 20260509001554 | 7 | 285 | 0.0 | 0.0 | 0.00 | 0.00 | 0.00 | 53 | 1003.7 |
| 20260509000104 | 7 | 285 | 0.0 | 0.0 | 0.00 | 0.00 | 0.00 | 51 | 1003.7 |
| 20260508234556 | 7 | 285 | 0.0 | 0.0 | 0.00 | 0.00 | 0.00 | 49 | 1003.8 |
| 20260508233052 | 7 | 285 | 0.0 | 0.0 | 0.00 | 0.00 | 0.00 | 46 | 1003.9 |
| 20260508231552 | 7 | 285 | 0.0 | 0.0 | 0.00 | 0.00 | 0.00 | 47 | 1003.8 |
| 20260508230054 | 8 | 285 | 0.0 | 0.0 | 0.00 | 0.00 | 0.00 | 47 | 1003.9 |
| 20260508224554 | 8 | 285 | 0.0 | 0.0 | 0.00 | 0.00 | 0.00 | 48 | 1004.1 |
| 20260508223049 | 8 | 286 | 0.0 | 0.0 | 0.00 | 0.00 | 0.00 | 52 | 1004.1 |
| 20260508221547 | 8 | 292 | 0.0 | 0.0 | 0.00 | 0.00 | 0.00 | 54 | 1004.3 |
| 20260508220046 | 8 | 310 | 0.0 | 0.0 | 0.00 | 0.00 | 0.00 | 57 | 1004.4 |
| 20260508214556 | 7 | 239 | 0.0 | 0.0 | 0.00 | 0.00 | 0.00 | 53 | 1004.5 |
| 20260508213058 | 8 | 232 | 0.0 | 0.0 | 0.00 | 0.00 | 0.00 | 47 | 1004.5 |
| 20260508211545 | 9 | 237 | 0.0 | 0.0 | 0.00 | 0.00 | 0.00 | 50 | 1004.5 |
| 20260508210047 | 8 | 284 | 0.0 | 0.0 | 0.00 | 0.00 | 0.00 | 56 | 1004.8 |
| 20260508204543 | 8 | 264 | 0.0 | 0.0 | 0.00 | 0.00 | 0.00 | 61 | 1004.7 |
| 20260508203049 | 7 | 258 | 0.0 | 0.0 | 0.00 | 0.00 | 0.00 | 63 | 1005.0 |
| 20260508201551 | 7 | 243 | 0.0 | 0.0 | 0.00 | 0.00 | 0.00 | 61 | 1005.1 |
| 20260508200042 | 7 | 222 | 0.0 | 0.0 | 0.00 | 0.00 | 0.00 | 63 | 1005.4 |
| 20260508194536 | 8 | 228 | 0.0 | 0.0 | 0.00 | 0.00 | 0.00 | 64 | 1005.6 |
| 20260508193034 | 8 | 245 | 0.0 | 0.0 | 0.00 | 0.00 | 0.00 | 65 | 1005.7 |
| 20260508191534 | 7 | 249 | 0.0 | 0.0 | 0.00 | 0.00 | 0.00 | 70 | 1005.9 |
| 20260508190040 | 6 | 245 | 0.0 | 0.0 | 0.00 | 0.00 | 0.00 | 74 | 1006.0 |
| 20260508184534 | 6 | 236 | 0.0 | 0.0 | 0.00 | 0.00 | 0.00 | 73 | 1006.1 |
| 20260508183036 | 6 | 245 | 0.0 | 0.0 | 0.00 | 0.00 | 0.00 | 70 | 1006.0 |
| 20260508181549 | 6 | 247 | 0.0 | 0.0 | 0.00 | 0.00 | 0.00 | 69 | 1006.1 |
| 20260508180029 | 6 | 258 | 0.0 | 0.0 | 0.00 | 0.00 | 0.00 | 69 | 1006.3 |
| 20260508174530 | 6 | 243 | 0.0 | 0.0 | 0.00 | 0.00 | 0.00 | 71 | 1006.2 |
| 20260508173026 | 7 | 237 | 0.0 | 0.0 | 0.00 | 0.00 | 0.00 | 71 | 1006.5 |
| 20260508171526 | 8 | 206 | 0.0 | 0.0 | 0.00 | 0.00 | 0.00 | 67 | 1006.6 |
| 20260508170024 | 9 | 228 | 0.0 | 0.0 | 0.00 | 0.00 | 0.00 | 61 | 1006.7 |
| 20260508164534 | 9 | 223 | 0.0 | 0.0 | 0.00 | 0.00 | 0.00 | 62 | 1006.8 |
| 20260508163020 | 9 | 247 | 0.0 | 0.0 | 0.00 | 0.00 | 0.00 | 61 | 1007.0 |